Buenos Aires, Argentina

7:36 PM America en Febrero 18, 2018 (GMT +0000)
Jorge Newbery Aeroparque

Tiempo Historia de SABE - Febrero, 2018

Change the Weather History Date:

Martes, Febrero 13, 2018

  Actual Average Record
Temperature  
Temperatura media 72 ° F -  
Temperatura máxima 77 ° F 80 ° F 88 ° F (2016)
Temperatura mínima 66 ° F 66 ° F 62 ° F (2000)
Cooling Degree Days 6    
Growing Degree Days 22 (Base 50)    
Moisture  
Punto de rocío 47 ° F    
Average Humidity 40    
Maximum Humidity 56    
Minimum Humidity 21    
Precipitación  
Precipitación 0.00 pul 0.15 pul - ()
Presión al nivel del mar  
Presión al nivel del mar 30.15 pul    
Viento  
Velocidad del viento 6 mph ()    
Velocidad máxima del viento 10 mph    
Max Gust Speed -    
Visibilidad 6.0 Millas    
Eventos      
Averages and records for this station are not official NWS values.
T = Trace of Precipitation, MM = Missing Value Source: Averaged Metar Reports

Daily Weather History Graph

Daily Weather History Graph

Search for Another Location

Airport or City:

Trip Planner

Search our weather history database for the weather conditions in past years. The results will help you decide how hot, cold, wet, or windy it might be!

Date:

Astronomía

Feb. 13, 2018 Salida Puesta
Hora real 6:26 AM -03 7:49 PM -03
Crepúsculo civil 5:59 AM -03 8:15 PM -03
Crepúsculo náutico 5:27 AM -03 8:47 PM -03
Crepúsculo astronómico 4:54 AM -03 9:20 PM -03
Luna 4:16 AM -03 (2/13) 6:31 PM -03 (2/13)
Horas de luz 14h 15m
Horas de luz
13h 22m
Creciente menguante, 5% of the Moon is Illuminated
Feb 13
Creciente menguante
Feb 15
Nueva
Feb 23
Cuarto creciente
Mar 1
Luna llena
Mar 9
Cuarto menguante

Hourly Weather History & Observations

Hora (-03) Temp. Punto de rocío Humedad Presión Visibilidad Wind Dir Velocidad del viento Velocidad de ráfagas Precip Eventos Condiciones
12:00 AM 68 ° F 46 ° F 33% 30.15 pul 6 mi ENE 6.9 mph - -  
12:00 AM 68.0 ° F 42.8 ° F 40% 30.12 pul - ENE 6.9 mph - N/A   Despejado
1:00 AM 68.0 ° F 44.6 ° F 43% 30.12 pul - ENE 5.8 mph - N/A   Despejado
2:00 AM 68.0 ° F 44.6 ° F 43% 30.12 pul - ENE 5.8 mph - N/A   Despejado
3:00 AM 67 ° F 48 ° F 40% 30.16 pul 6 mi ENE 5.8 mph - -  
3:00 AM 68.0 ° F 46.4 ° F 46% 30.12 pul - ENE 5.8 mph - N/A   Despejado
4:00 AM 66.2 ° F 48.2 ° F 52% 30.12 pul - ENE 6.9 mph - N/A   Despejado
5:00 AM 66.2 ° F 50.0 ° F 56% 30.15 pul - NE 6.9 mph - N/A   Despejado
6:00 AM 66 ° F 49 ° F 44% 30.17 pul 6 mi ENE 6.9 mph - -   Nubes dispersas
6:00 AM 66.2 ° F 48.2 ° F 52% 30.15 pul 6.2 mi ENE 6.9 mph - N/A   Parcialmente nublado
7:00 AM 68.0 ° F 50.0 ° F 52% 30.18 pul - NNE 6.9 mph - N/A   Despejado
8:00 AM 69.8 ° F 51.8 ° F 53% 30.18 pul - NNE 5.8 mph - N/A   Despejado
9:00 AM 70 ° F 53 ° F 43% 30.21 pul 6 mi NE 5.8 mph - -   Nubes dispersas
9:00 AM 71.6 ° F 51.8 ° F 50% 30.18 pul - NE 5.8 mph - N/A   Despejado
10:00 AM 71.6 ° F 50.0 ° F 46% 30.21 pul - NNE 5.8 mph - N/A   Despejado
11:00 AM 73.4 ° F 51.8 ° F 47% 30.21 pul - NNE 6.9 mph - N/A   Despejado
12:00 PM 73 ° F 52 ° F 36% 30.22 pul 6 mi NNE 6.9 mph - -  
12:00 PM 73.4 ° F 50.0 ° F 44% 30.21 pul - NNE 6.9 mph - N/A   Despejado
1:00 PM 75.2 ° F 48.2 ° F 38% 30.18 pul - NE 6.9 mph - N/A   Despejado
2:00 PM 75.2 ° F 44.6 ° F 34% 30.18 pul - ENE 9.2 mph - N/A   Despejado
3:00 PM 76 ° F 44 ° F 21% 30.18 pul 6 mi NE 9.2 mph - -  
3:00 PM 77.0 ° F 42.8 ° F 29% 30.15 pul - ENE 9.2 mph - N/A   Despejado
4:00 PM 77.0 ° F 41.0 ° F 28% 30.15 pul - ENE 9.2 mph - N/A   Despejado
5:00 PM 77.0 ° F 42.8 ° F 29% 30.12 pul - ENE 9.2 mph - N/A   Despejado
6:00 PM 76 ° F 43 ° F 21% 30.13 pul 6 mi ENE 8.1 mph - -   Despejado
6:00 PM 77.0 ° F 42.8 ° F 29% 30.12 pul - ENE 8.1 mph - N/A   Despejado
7:00 PM 75.2 ° F 44.6 ° F 34% 30.09 pul - Este 9.2 mph - N/A   Despejado
8:00 PM 73.4 ° F 44.6 ° F 36% 30.09 pul - Este 9.2 mph - N/A   Despejado
9:00 PM 71 ° F 44 ° F 27% 30.14 pul 6 mi Este 9.2 mph - -  
9:00 PM 73.4 ° F 41.0 ° F 31% 30.12 pul - Este 9.2 mph - N/A   Despejado
10:00 PM 73.4 ° F 46.4 ° F 38% 30.15 pul - Este 9.2 mph - N/A   Despejado
11:00 PM 73.4 ° F 53.6 ° F 50% 30.15 pul - Este 10.4 mph - N/A   Despejado